EW6576 Weather Reports


Display with metric or nautical units.
time (UTC)temp
F
wind
direction
speed
MPH
gust
MPH
rain 1hr
in
rain 24hr
in
rain mn
in
humidity
%
barometer
mb
20260902160903 71 170 0.0 1.0 0.00 0.00 0.00 75 1016.6
20260902160358 70 154 0.0 0.0 0.00 0.00 0.00 78 1016.5
20260902155856 70 143 1.0 2.0 0.00 0.00 0.00 79 1016.3
20260902155356 70 2 3.0 3.0 0.00 0.00 0.00 78 1016.3
20260902154850 69 178 0.0 1.0 0.00 0.00 0.00 80 1016.7
20260902154346 69 183 1.0 1.0 0.00 0.00 0.00 81 1016.8
20260902153845 69 25 2.0 3.0 0.00 0.00 0.00 80 1016.6
20260902153345 68 143 0.0 0.0 0.00 0.00 0.00 82 1016.3
20260902152841 68 44 1.0 1.0 0.00 0.00 0.00 83 1016.8
20260902152336 68 64 1.0 2.0 0.00 0.00 0.00 84 1016.7
20260902151832 65 141 0.0 0.0 0.00 0.00 0.00 88 1016.5
20260902151327 64 187 0.0 1.0 0.00 0.00 0.00 92 1016.6
20260902150821 63 144 0.0 0.0 0.00 0.00 0.00 96 1016.5
20260902150318 62 145 0.0 0.0 0.00 0.00 0.00 98 1016.3
20260902145817 61 137 0.0 0.0 0.00 0.00 0.00 98 1016.9
20260902145312 61 183 0.0 0.0 0.00 0.00 0.00 98 1016.8
20260902144808 61 184 0.0 0.0 0.00 0.00 0.00 99 1016.6
20260902144304 60 168 0.0 1.0 0.00 0.00 0.00 99 1016.7
20260902143758 60 168 0.0 0.0 0.00 0.00 0.00 99 1016.6
20260902143253 60 168 0.0 0.0 0.00 0.00 0.00 99 1016.6
20260902142749 59 170 0.0 0.0 0.00 0.00 0.00 99 1016.6
20260902142245 59 169 0.0 0.0 0.00 0.00 0.00 99 1016.5
20260902141745 59 170 0.0 0.0 0.00 0.00 0.00 99 1016.3
20260902141241 59 170 0.0 0.0 0.00 0.00 0.00 99 1016.6
20260902140741 58 170 0.0 0.0 0.00 0.00 0.00 99 1016.3
20260902140236 57 169 0.0 0.0 0.00 0.00 0.00 99 1016.2
20260902135735 57 168 0.0 0.0 0.00 0.00 0.00 99 1016.2
20260902135231 56 168 0.0 0.0 0.00 0.00 0.00 99 1016.2
20260902134730 55 168 0.0 0.0 0.00 0.00 0.00 99 1016.1
20260902134226 55 168 0.0 0.0 0.00 0.00 0.00 99 1015.9
20260902133721 55 168 0.0 0.0 0.00 0.00 0.00 99 1015.8
20260902133220 55 168 0.0 0.0 0.00 0.00 0.00 99 1016.2
20260902132715 56 169 0.0 0.0 0.00 0.00 0.00 99 1015.9
20260902132211 57 170 0.0 0.0 0.00 0.00 0.00 99 1015.9
20260902131706 56 155 0.0 1.0 0.00 0.00 0.00 99 1015.9
20260902131203 56 154 0.0 0.0 0.00 0.00 0.00 99 1015.8
20260902130657 56 154 0.0 0.0 0.00 0.00 0.00 99 1015.6
20260902130153 57 154 0.0 0.0 0.00 0.00 0.00 99 1015.8
20260902125648 57 182 0.0 0.0 0.00 0.00 0.00 99 1015.7
20260902125144 57 136 0.0 0.0 0.00 0.00 0.00 99 1015.5
20260902124641 57 136 0.0 0.0 0.00 0.00 0.00 99 1015.8
20260902124140 57 136 0.0 0.0 0.00 0.00 0.00 99 1015.7
20260902123636 56 136 0.0 0.0 0.00 0.00 0.00 98 1015.5
20260902123137 57 136 0.0 0.0 0.00 0.00 0.00 98 1015.6
20260902122631 57 136 0.0 0.0 0.00 0.00 0.00 99 1015.7
20260902122126 57 136 0.0 0.0 0.00 0.00 0.00 98 1015.6
20260902121621 57 136 0.0 0.0 0.00 0.00 0.00 98 1015.3
20260902121115 57 136 0.0 0.0 0.00 0.00 0.00 98 1015.4
20260902120612 57 136 0.0 0.0 0.00 0.00 0.00 98 1015.6
20260902120108 57 136 0.0 0.0 0.00 0.00 0.00 98 1015.7
20260902115603 58 136 0.0 0.0 0.00 0.00 0.00 98 1015.7
20260902115059 58 136 0.0 0.0 0.00 0.00 0.00 98 1015.7
20260902114555 58 136 0.0 0.0 0.00 0.00 0.00 98 1015.6
20260902114054 58 136 0.0 0.0 0.00 0.00 0.00 98 1015.6
20260902113550 59 136 0.0 0.0 0.00 0.00 0.00 98 1015.8
20260902113045 59 136 0.0 0.0 0.00 0.00 0.00 98 1015.6
20260902112540 59 136 0.0 0.0 0.00 0.00 0.00 98 1015.5
20260902112037 59 136 0.0 0.0 0.00 0.00 0.00 98 1015.5
20260902111533 59 136 0.0 0.0 0.00 0.00 0.00 98 1015.6
20260902111028 59 136 0.0 0.0 0.00 0.00 0.00 98 1015.5
20260902110524 59 136 0.0 0.0 0.00 0.00 0.00 98 1015.5
20260902110020 59 136 0.0 0.0 0.00 0.00 0.00 97 1015.9
20260902105520 59 135 0.0 0.0 0.00 0.00 0.00 97 1015.7
20260902105014 59 135 0.0 0.0 0.00 0.00 0.00 97 1015.5
20260902104509 59 135 0.0 0.0 0.00 0.00 0.00 97 1015.7
20260902104004 59 135 0.0 0.0 0.00 0.00 0.00 97 1015.7
20260902103500 59 135 0.0 0.0 0.00 0.00 0.00 97 1015.7
20260902102954 59 135 0.0 0.0 0.00 0.00 0.00 97 1015.8
20260902102451 59 135 0.0 0.0 0.00 0.00 0.00 97 1015.7
20260902101947 59 136 0.0 0.0 0.00 0.00 0.00 97 1015.8
20260902101442 60 135 0.0 0.0 0.00 0.00 0.00 97 1016.0
20260902100941 60 135 0.0 0.0 0.00 0.00 0.00 97 1015.9
20260902100436 60 138 0.0 0.0 0.00 0.00 0.00 97 1016.1
20260902095936 60 139 0.0 0.0 0.00 0.00 0.00 97 1016.1
20260902095431 60 139 0.0 0.0 0.00 0.00 0.00 97 1016.2
20260902094930 60 139 0.0 0.0 0.00 0.00 0.00 97 1016.0
20260902094426 60 139 0.0 0.0 0.00 0.00 0.00 97 1016.0
20260902093921 60 139 0.0 0.0 0.00 0.00 0.00 97 1016.3
20260902093416 60 139 0.0 0.0 0.00 0.00 0.00 97 1016.1
20260902092914 60 139 0.0 0.0 0.00 0.00 0.00 97 1016.1
20260902092405 60 139 0.0 0.0 0.00 0.00 0.00 97 1016.3
20260902091905 60 139 0.0 0.0 0.00 0.00 0.00 97 1016.2
20260902091400 60 139 0.0 0.0 0.00 0.00 0.00 97 1016.3
20260902090857 60 139 0.0 1.0 0.00 0.00 0.00 97 1016.5
20260902090357 60 139 0.0 0.0 0.00 0.00 0.00 97 1016.2
20260902085855 60 139 0.0 0.0 0.00 0.00 0.00 97 1016.3
20260902085351 60 138 0.0 0.0 0.00 0.00 0.00 97 1016.6
20260902084846 60 139 0.0 0.0 0.00 0.00 0.00 97 1016.2
20260902084342 60 138 0.0 0.0 0.00 0.00 0.00 97 1016.5
20260902083838 61 138 0.0 0.0 0.00 0.00 0.00 97 1016.6
20260902083337 60 138 0.0 0.0 0.00 0.00 0.00 97 1016.5
20260902082833 60 138 0.0 0.0 0.00 0.00 0.00 97 1016.5
20260902082329 60 138 0.0 0.0 0.00 0.00 0.00 97 1016.6
20260902081825 60 138 0.0 0.0 0.00 0.00 0.00 97 1016.5
20260902081320 59 138 0.0 0.0 0.00 0.00 0.00 97 1016.5
20260902080815 59 138 0.0 0.0 0.00 0.00 0.00 97 1016.5
20260902080312 58 138 0.0 0.0 0.00 0.00 0.00 97 1016.3
20260902075811 58 138 0.0 0.0 0.00 0.00 0.00 97 1016.5
20260902075307 58 138 0.0 0.0 0.00 0.00 0.00 97 1016.2
20260902074802 58 138 0.0 0.0 0.00 0.00 0.00 96 1016.1
20260902074257 58 138 0.0 0.0 0.00 0.00 0.00 96 1016.5
20260902073752 58 138 0.0 0.0 0.00 0.00 0.00 96 1016.3
20260902073249 58 138 0.0 0.0 0.00 0.00 0.00 96 1016.5
20260902072744 59 138 0.0 0.0 0.00 0.00 0.00 96 1016.3
20260902072240 58 139 0.0 0.0 0.00 0.00 0.00 96 1016.2
20260902071736 58 138 0.0 0.0 0.00 0.00 0.00 96 1016.2
20260902071231 58 138 0.0 0.0 0.00 0.00 0.00 96 1016.1
20260902070728 59 139 0.0 0.0 0.00 0.00 0.00 95 1016.2
20260902070227 59 138 0.0 0.0 0.00 0.00 0.00 95 1016.0
20260902065726 59 139 0.0 0.0 0.00 0.00 0.00 95 1016.1
20260902065221 59 139 0.0 0.0 0.00 0.00 0.00 95 1016.0
20260902064716 59 139 0.0 0.0 0.00 0.00 0.00 95 1015.9
20260902064212 59 139 0.0 0.0 0.00 0.00 0.00 95 1015.9
20260902063708 59 139 0.0 0.0 0.00 0.00 0.00 95 1016.0
20260902063202 59 139 0.0 1.0 0.00 0.00 0.00 95 1015.9
20260902062701 59 139 0.0 0.0 0.00 0.00 0.00 94 1016.0
20260902062156 59 139 0.0 0.0 0.00 0.00 0.00 94 1016.0
20260902061655 59 139 0.0 0.0 0.00 0.00 0.00 94 1015.9
20260902061151 59 139 0.0 0.0 0.00 0.00 0.00 94 1015.7
20260902060648 59 139 0.0 0.0 0.00 0.00 0.00 94 1015.7
20260902060144 60 139 0.0 0.0 0.00 0.00 0.00 94 1015.7
20260902055639 60 138 1.0 1.0 0.00 0.00 0.00 93 1015.6
20260902055135 60 140 0.0 0.0 0.00 0.00 0.00 93 1016.0
20260902054630 60 140 0.0 0.0 0.00 0.00 0.00 92 1015.9
20260902054126 60 140 0.0 1.0 0.00 0.00 0.00 92 1015.8
20260902053621 60 139 0.0 0.0 0.00 0.00 0.00 92 1015.7
20260902053121 60 143 0.0 0.0 0.00 0.00 0.00 92 1015.9
20260902052615 61 149 0.0 0.0 0.00 0.00 0.00 91 1016.0
20260902052111 61 149 0.0 0.0 0.00 0.00 0.00 91 1015.9
20260902051610 61 128 2.0 2.0 0.00 0.00 0.00 91 1015.7
20260902051109 61 140 0.0 0.0 0.00 0.00 0.00 90 1015.8
20260902050604 61 143 0.0 0.0 0.00 0.00 0.00 91 1015.8
20260902050059 61 142 0.0 0.0 0.00 0.00 0.00 90 1015.9
20260902045554 61 143 0.0 0.0 0.00 0.00 0.00 90 1015.7
20260902045050 61 138 0.0 0.0 0.00 0.00 0.00 90 1015.7
20260902044545 62 153 1.0 1.0 0.00 0.00 0.00 90 1015.7
20260902044041 62 141 0.0 0.0 0.00 0.00 0.00 90 1015.6
20260902043536 63 154 0.0 0.0 0.00 0.00 0.00 91 1015.5
20260902043031 64 160 0.0 1.0 0.00 0.00 0.00 91 1015.4
20260902042530 64 166 0.0 0.0 0.00 0.00 0.00 91 1015.5
20260902042025 64 160 1.0 1.0 0.00 0.00 0.00 91 1015.5
20260902041520 65 174 1.0 2.0 0.00 0.00 0.00 91 1015.4
20260902041014 65 146 0.0 1.0 0.00 0.00 0.00 90 1015.0
20260902040509 65 142 0.0 0.0 0.00 0.00 0.00 90 1015.0
20260902040008 65 122 1.0 2.0 0.00 0.00 0.00 90 1014.9
20260902035502 66 181 1.0 1.0 0.00 0.00 0.00 90 1014.7
20260902034956 66 150 0.0 0.0 0.00 0.00 0.00 89 1014.6
20260902034456 66 164 0.0 0.0 0.00 0.00 0.00 89 1014.7
20260902033951 66 166 0.0 0.0 0.00 0.00 0.00 88 1014.7
20260902033450 66 186 1.0 1.0 0.00 0.00 0.00 88 1014.5
20260902032949 66 156 0.0 0.0 0.00 0.00 0.00 87 1014.5
20260902032444 66 170 0.0 0.0 0.00 0.00 0.00 86 1014.3
20260902031938 66 182 0.0 0.0 0.00 0.00 0.00 86 1014.2
20260902031434 67 186 1.0 1.0 0.00 0.00 0.00 86 1014.2
20260902030930 67 183 0.0 0.0 0.00 0.00 0.00 86 1014.4
20260902030424 67 166 0.0 0.0 0.00 0.00 0.00 86 1014.2
20260902025923 68 139 1.0 1.0 0.00 0.00 0.00 85 1014.2
20260902025419 68 120 2.0 2.0 0.00 0.00 0.00 84 1014.2
20260902024914 68 138 1.0 2.0 0.00 0.00 0.00 83 1014.0
20260902024409 68 164 3.0 3.0 0.00 0.00 0.00 82 1014.1
20260902023904 69 111 3.0 3.0 0.00 0.00 0.00 81 1014.2
20260902023400 69 154 2.0 2.0 0.00 0.00 0.00 80 1014.0
20260902022859 69 147 3.0 5.0 0.00 0.00 0.00 79 1013.9
20260902022354 70 119 1.0 2.0 0.00 0.00 0.00 77 1014.0
20260902021850 70 124 3.0 3.0 0.00 0.00 0.00 76 1014.2
20260902021350 70 140 3.0 3.0 0.00 0.00 0.00 75 1014.3
20260902020846 70 124 3.0 5.0 0.00 0.00 0.00 75 1013.9
20260902020342 71 110 5.0 6.0 0.00 0.00 0.00 75 1013.8
20260902015837 71 162 2.0 2.0 0.00 0.00 0.00 74 1014.0
20260902015333 72 92 3.0 3.0 0.00 0.00 0.00 73 1013.9
20260902014828 72 111 2.0 2.0 0.00 0.00 0.00 71 1013.9
20260902014325 72 110 4.0 5.0 0.00 0.00 0.00 69 1013.9
20260902013823 73 136 4.0 6.0 0.00 0.00 0.00 68 1013.9
20260902013319 73 167 3.0 5.0 0.00 0.00 0.00 67 1013.9
20260902012814 75 147 3.0 3.0 0.00 0.00 0.00 65 1014.0
20260902012310 75 138 4.0 5.0 0.00 0.00 0.00 63 1014.0
20260902011806 75 139 4.0 6.0 0.00 0.00 0.00 64 1013.7
20260902011300 76 113 5.0 6.0 0.00 0.00 0.00 62 1013.7
20260902010759 76 128 3.0 3.0 0.00 0.00 0.00 57 1013.9
20260902010255 76 118 3.0 6.0 0.00 0.00 0.00 55 1013.7
20260902005753 76 118 5.0 6.0 0.00 0.00 0.00 56 1013.5
20260902005249 77 117 1.0 2.0 0.00 0.00 0.00 61 1013.8
20260902004743 77 120 7.0 7.0 0.00 0.00 0.00 60 1013.7
20260902004238 77 124 3.0 3.0 0.00 0.00 0.00 61 1013.7
20260902003733 77 146 4.0 5.0 0.00 0.00 0.00 61 1013.8
20260902003229 77 149 5.0 6.0 0.00 0.00 0.00 60 1013.9
20260902002725 78 118 7.0 8.0 0.00 0.00 0.00 58 1013.9
20260902002224 77 127 8.0 8.0 0.00 0.00 0.00 61 1013.9
20260902001720 77 119 5.0 8.0 0.00 0.00 0.00 61 1013.9
20260902001219 78 139 4.0 6.0 0.00 0.00 0.00 57 1013.8
20260902000714 78 138 5.0 7.0 0.00 0.00 0.00 58 1014.1
20260902000211 79 130 5.0 6.0 0.00 0.00 0.00 57 1014.0
20260901235709 78 133 2.0 3.0 0.00 0.00 0.00 57 1013.8
20260901235204 79 132 1.0 1.0 0.00 0.00 0.00 59 1014.0
20260901234704 79 99 4.0 6.0 0.00 0.00 0.00 59 1014.2
20260901234159 80 113 5.0 6.0 0.00 0.00 0.00 57 1013.8
20260901233658 80 116 4.0 7.0 0.00 0.00 0.00 57 1014.1
20260901233155 79 146 2.0 6.0 0.00 0.00 0.00 57 1014.1
20260901232649 80 119 7.0 9.0 0.00 0.00 0.00 54 1014.0
20260901232144 80 52 3.0 3.0 0.00 0.00 0.00 54 1014.1
20260901231641 80 111 3.0 6.0 0.00 0.00 0.00 55 1014.1
20260901231138 80 121 5.0 8.0 0.00 0.00 0.00 55 1013.9
20260901230633 80 181 3.0 3.0 0.00 0.00 0.00 55 1014.0
20260901230132 82 144 5.0 7.0 0.00 0.00 0.00 52 1014.0
20260901225627 82 187 2.0 3.0 0.00 0.00 0.00 52 1013.9
20260901225122 82 203 4.0 6.0 0.00 0.00 0.00 51 1013.9
20260901224618 82 94 6.0 8.0 0.00 0.00 0.00 50 1014.1
20260901224114 82 167 5.0 6.0 0.00 0.00 0.00 50 1014.1
20260901223609 82 190 5.0 6.0 0.00 0.00 0.00 49 1014.0
20260901223104 82 206 6.0 7.0 0.00 0.00 0.00 48 1014.2
20260901222601 82 196 5.0 7.0 0.00 0.00 0.00 51 1014.2
20260901222056 82 139 4.0 6.0 0.00 0.00 0.00 47 1014.2
20260901221552 82 137 4.0 5.0 0.00 0.00 0.00 48 1014.2
20260901221047 82 194 7.0 10.0 0.00 0.00 0.00 43 1014.2
20260901220547 82 146 5.0 8.0 0.00 0.00 0.00 48 1014.1
20260901220046 82 193 2.0 2.0 0.00 0.00 0.00 49 1014.3
20260901215544 82 199 3.0 5.0 0.00 0.00 0.00 47 1014.5
20260901215038 82 223 5.0 7.0 0.00 0.00 0.00 49 1014.5
20260901214537 82 111 5.0 6.0 0.00 0.00 0.00 47 1014.4
20260901214032 83 189 5.0 5.0 0.00 0.00 0.00 47 1014.5
20260901213531 82 167 4.0 5.0 0.00 0.00 0.00 46 1014.5
20260901213026 83 212 4.0 5.0 0.00 0.00 0.00 47 1014.5
20260901212526 83 204 4.0 6.0 0.00 0.00 0.00 49 1014.7
20260901212023 83 192 4.0 5.0 0.00 0.00 0.00 46 1014.5
20260901211518 83 102 2.0 5.0 0.00 0.00 0.00 49 1014.5
20260901211014 83 129 3.0 3.0 0.00 0.00 0.00 49 1014.4
20260901210509 83 201 5.0 7.0 0.00 0.00 0.00 48 1014.6
20260901210005 84 199 3.0 5.0 0.00 0.00 0.00 49 1014.6
20260901205500 84 131 6.0 8.0 0.00 0.00 0.00 49 1014.5
20260901204954 84 82 3.0 6.0 0.00 0.00 0.00 51 1014.6
20260901204451 83 105 5.0 7.0 0.00 0.00 0.00 50 1014.6
20260901203950 83 212 6.0 9.0 0.00 0.00 0.00 51 1014.5
20260901203446 83 117 5.0 8.0 0.00 0.00 0.00 51 1014.7
20260901202941 83 181 3.0 5.0 0.00 0.00 0.00 53 1014.6
20260901202435 83 208 4.0 5.0 0.00 0.00 0.00 52 1014.7
20260901201931 84 105 8.0 10.0 0.00 0.00 0.00 52 1014.6
20260901201426 84 130 4.0 6.0 0.00 0.00 0.00 54 1014.8
20260901200920 85 86 2.0 3.0 0.00 0.00 0.00 51 1014.8
20260901200415 84 191 2.0 2.0 0.00 0.00 0.00 52 1014.8
20260901195914 85 169 3.0 5.0 0.00 0.00 0.00 53 1014.9
20260901195408 84 110 7.0 8.0 0.00 0.00 0.00 53 1015.0
20260901194903 85 104 2.0 2.0 0.00 0.00 0.00 53 1014.8
20260901194356 84 167 1.0 2.0 0.00 0.00 0.00 53 1015.0
20260901193853 84 183 3.0 5.0 0.00 0.00 0.00 54 1015.0
20260901193351 85 130 6.0 7.0 0.00 0.00 0.00 53 1014.9
20260901192846 84 144 2.0 2.0 0.00 0.00 0.00 52 1015.1
20260901192342 84 131 4.0 5.0 0.00 0.00 0.00 55 1015.1
20260901191838 84 139 1.0 3.0 0.00 0.00 0.00 54 1015.2
20260901191333 85 111 1.0 2.0 0.00 0.00 0.00 53 1015.1
20260901190829 85 165 2.0 3.0 0.00 0.00 0.00 53 1015.0
20260901190329 84 159 5.0 6.0 0.00 0.00 0.00 53 1015.2
20260901185827 84 198 0.0 1.0 0.00 0.00 0.00 54 1015.2
20260901185321 84 264 3.0 6.0 0.00 0.00 0.00 54 1015.1
20260901184816 84 172 3.0 3.0 0.00 0.00 0.00 53 1015.5
20260901184312 84 113 4.0 6.0 0.00 0.00 0.00 54 1015.4
20260901183807 84 153 4.0 5.0 0.00 0.00 0.00 54 1015.3
20260901183307 84 195 1.0 2.0 0.00 0.00 0.00 53 1015.4
20260901182803 83 160 5.0 6.0 0.00 0.00 0.00 53 1015.4
20260901182305 83 100 2.0 3.0 0.00 0.00 0.00 53 1015.4
20260901181757 84 96 3.0 3.0 0.00 0.00 0.00 53 1015.7
20260901181251 83 161 1.0 1.0 0.00 0.00 0.00 55 1015.4
20260901180750 82 270 3.0 3.0 0.00 0.00 0.00 55 1015.6
20260901180250 83 184 1.0 1.0 0.00 0.00 0.00 54 1015.5
20260901175749 82 132 1.0 2.0 0.00 0.00 0.00 57 1015.6
20260901175244 81 129 1.0 1.0 0.00 0.00 0.00 55 1015.6
20260901174739 82 104 2.0 2.0 0.00 0.00 0.00 58 1015.6
20260901174235 80 49 1.0 2.0 0.00 0.00 0.00 59 1015.7
20260901173731 80 75 4.0 6.0 0.00 0.00 0.00 61 1015.4
20260901173226 81 310 1.0 2.0 0.00 0.00 0.00 61 1015.4
20260901172723 80 168 1.0 1.0 0.00 0.00 0.00 64 1015.5
20260901172221 78 113 0.0 0.0 0.00 0.00 0.00 66 1015.7
20260901171719 78 159 1.0 1.0 0.00 0.00 0.00 66 1015.5
20260901171218 78 126 2.0 2.0 0.00 0.00 0.00 66 1015.6
20260901170717 78 163 1.0 1.0 0.00 0.00 0.00 66 1015.7
20260901170213 78 98 1.0 1.0 0.00 0.00 0.00 67 1015.3
20260901165711 77 121 1.0 2.0 0.00 0.00 0.00 68 1015.6
20260901165206 77 97 0.0 1.0 0.00 0.00 0.00 69 1015.4
20260901164703 76 218 0.0 1.0 0.00 0.00 0.00 71 1015.4
20260901164157 76 344 1.0 2.0 0.00 0.00 0.00 71 1015.5
20260901163653 76 84 1.0 1.0 0.00 0.00 0.00 72 1015.6
20260901163152 75 152 0.0 0.0 0.00 0.00 0.00 74 1015.6
20260901162647 74 204 1.0 2.0 0.00 0.00 0.00 75 1015.5
20260901162147 73 142 1.0 1.0 0.00 0.00 0.00 77 1015.6
20260901161645 74 115 2.0 2.0 0.00 0.00 0.00 75 1015.5
20260901161145 74 110 1.0 1.0 0.00 0.00 0.00 75 1015.6